User: anonymous   Login
Location: Fort Wayne
(41.1310°N, 85.1290°W)
Time: 11:56:29
(UTC-05:00)
Language:

COSMOS 2428 - Orbit

View from above orbital plane
View from above orbital plane
View from above satellite
View from above satellite

Ground track
Ground track

The orbit data is extracted from the following two-line orbital elements,

1 31792U 07029A   16045.45196541  .00000137  00000-0  10000-3 0  9996
2 31792  70.9561 357.6825 0010640 294.0800 180.1142 14.12432415445065
Epoch (UTC): 14 February 2016 10:50:49
Eccentricity: 0.0010640
inclination: 70.9561°
perigee height: 843 km
apogee height: 859 km
right ascension of ascending node: 357.6825°
argument of perigee: 294.0800°
revolutions per day: 14.12432415
mean anomaly at epoch: 180.1142°
orbit number at epoch: 44506

The dashed part of the orbit path shows where the satellite is in the earth's shadow,  

DLR